Zurück zum Katalog

GSLV R/B

AktivHEO
NORAD 56760·ROCKET BODY·🇮🇳 India

Gestartet May 29, 2023 von Satish Dhawan Space Centre

Loading…

Nächste Überflüge (nächste 24 Stunden)

TLE

AktuellSource: Space-Track

Epoche: Sep 13, 2026, 08:08 UTC

1 56760U 23076B   26256.33955214  .00015611  00000-0  82237-3 0  9994
2 56760  19.3554 349.3002 6439173 267.7142  22.8248  3.45221338 34471

Verfolge GSLV R/B in Echtzeit mit AllMySat

Download on the App Store